Time,TemperatureF,DewpointF,PressureIn,WindDirection,WindDirectionDegrees,WindSpeedMPH,WindSpeedGustMPH,Humidity,HourlyPrecipIn,Conditions,Clouds,dailyrainin,SoftwareType,DateUTC
2013-02-13 00:13:00,41.1,35.0,29.91,North,355,3.0,7.0,80,0.00,,,0.00,weatherlink.com 1.10,2013-02-13 06:13:00,
2013-02-13 00:28:00,40.9,35.0,29.91,North,355,1.0,6.0,80,0.00,,,0.00,weatherlink.com 1.10,2013-02-13 06:28:00,
2013-02-13 00:43:00,40.6,35.0,29.90,North,355,0.0,6.0,80,0.00,,,0.00,weatherlink.com 1.10,2013-02-13 06:43:00,
2013-02-13 00:58:00,40.2,35.0,29.90,North,355,1.0,6.0,81,0.00,,,0.00,weatherlink.com 1.10,2013-02-13 06:58:00,
2013-02-13 01:13:00,40.0,35.0,29.90,North,355,4.0,7.0,81,0.00,,,0.00,weatherlink.com 1.10,2013-02-13 07:13:00,
2013-02-13 01:28:00,40.0,34.0,29.90,North,5,4.0,7.0,80,0.00,,,0.00,weatherlink.com 1.10,2013-02-13 07:28:00,
2013-02-13 01:43:00,40.0,34.0,29.89,North,5,6.0,7.0,80,0.00,,,0.00,weatherlink.com 1.10,2013-02-13 07:43:00,
2013-02-13 01:58:00,40.0,34.0,29.89,North,355,7.0,10.0,80,0.00,,,0.00,weatherlink.com 1.10,2013-02-13 07:58:00,
2013-02-13 02:13:00,39.8,34.0,29.88,North,349,8.0,10.0,80,0.00,,,0.00,weatherlink.com 1.10,2013-02-13 08:13:00,
2013-02-13 02:28:00,39.8,34.0,29.88,North,350,5.0,7.0,81,0.00,,,0.00,weatherlink.com 1.10,2013-02-13 08:28:00,
2013-02-13 02:43:00,39.6,35.0,29.88,North,355,3.0,7.0,82,0.00,,,0.00,weatherlink.com 1.10,2013-02-13 08:43:00,
2013-02-13 02:58:00,39.5,34.0,29.87,North,355,1.0,4.0,82,0.00,,,0.00,weatherlink.com 1.10,2013-02-13 08:58:00,
2013-02-13 03:13:00,39.3,35.0,29.88,North,355,0.0,4.0,84,0.00,,,0.00,weatherlink.com 1.10,2013-02-13 09:13:00,
2013-02-13 03:28:00,38.9,35.0,29.87,North,355,1.0,5.0,86,0.00,,,0.00,weatherlink.com 1.10,2013-02-13 09:28:00,
2013-02-13 03:43:00,38.9,36.0,29.88,North,355,3.0,5.0,88,0.01,,,0.01,weatherlink.com 1.10,2013-02-13 09:43:00,
2013-02-13 03:58:00,39.5,36.0,29.87,NNW,343,9.0,11.0,88,0.01,,,0.01,weatherlink.com 1.10,2013-02-13 09:58:00,
2013-02-13 04:13:00,38.8,36.0,29.87,NNW,337,5.0,10.0,88,0.01,,,0.01,weatherlink.com 1.10,2013-02-13 10:13:00,
2013-02-13 04:28:00,38.6,35.0,29.87,NNW,342,8.0,9.0,87,0.01,,,0.01,weatherlink.com 1.10,2013-02-13 10:28:00,
2013-02-13 04:43:00,38.7,35.0,29.87,NNW,340,5.0,8.0,87,0.00,,,0.01,weatherlink.com 1.10,2013-02-13 10:43:00,
2013-02-13 04:58:00,38.7,35.0,29.87,NNW,340,2.0,6.0,87,0.00,,,0.01,weatherlink.com 1.10,2013-02-13 10:58:00,
2013-02-13 05:13:00,38.4,35.0,29.86,NNW,340,0.0,3.0,88,0.00,,,0.01,weatherlink.com 1.10,2013-02-13 11:13:00,
2013-02-13 05:28:00,38.4,36.0,29.86,NNW,340,0.0,0.0,89,0.00,,,0.01,weatherlink.com 1.10,2013-02-13 11:28:00,
2013-02-13 05:43:00,38.1,36.0,29.86,NNW,340,0.0,1.0,90,0.00,,,0.01,weatherlink.com 1.10,2013-02-13 11:43:00,
2013-02-13 05:58:00,38.0,36.0,29.86,NNW,340,0.0,1.0,91,0.00,,,0.01,weatherlink.com 1.10,2013-02-13 11:58:00,
2013-02-13 06:13:00,37.9,36.0,29.86,NNW,340,0.0,0.0,91,0.00,,,0.01,weatherlink.com 1.10,2013-02-13 12:13:00,
2013-02-13 06:28:00,38.0,36.0,29.87,NNW,340,2.0,4.0,92,0.00,,,0.01,weatherlink.com 1.10,2013-02-13 12:28:00,
2013-02-13 06:43:00,38.0,36.0,29.88,NW,305,5.0,7.0,91,0.00,,,0.01,weatherlink.com 1.10,2013-02-13 12:43:00,
2013-02-13 06:58:00,38.3,35.0,29.88,NW,326,6.0,8.0,88,0.00,,,0.01,weatherlink.com 1.10,2013-02-13 12:58:00,
2013-02-13 07:14:00,37.5,34.0,29.89,NNW,344,2.0,8.0,87,0.01,,,0.02,weatherlink.com 1.10,2013-02-13 13:14:00,
2013-02-13 07:29:00,37.3,34.0,29.89,NNW,344,3.0,5.0,89,0.01,,,0.02,weatherlink.com 1.10,2013-02-13 13:29:00,
2013-02-13 07:44:00,37.4,35.0,29.90,NNW,344,2.0,5.0,89,0.02,,,0.03,weatherlink.com 1.10,2013-02-13 13:44:00,
2013-02-13 07:59:00,37.2,35.0,29.90,NNW,344,3.0,6.0,90,0.02,,,0.03,weatherlink.com 1.10,2013-02-13 13:59:00,
2013-02-13 08:14:00,37.2,35.0,29.90,NNW,344,4.0,4.0,90,0.01,,,0.03,weatherlink.com 1.10,2013-02-13 14:14:00,
2013-02-13 08:29:00,37.3,35.0,29.91,NW,304,4.0,6.0,91,0.02,,,0.04,weatherlink.com 1.10,2013-02-13 14:29:00,
2013-02-13 08:44:00,37.5,35.0,29.91,NW,304,5.0,7.0,92,0.01,,,0.04,weatherlink.com 1.10,2013-02-13 14:44:00,
2013-02-13 08:59:00,37.8,36.0,29.91,West,271,5.0,8.0,92,0.01,,,0.04,weatherlink.com 1.10,2013-02-13 14:59:00,
2013-02-13 09:14:00,38.3,36.0,29.91,WNW,292,2.0,6.0,92,0.01,,,0.04,weatherlink.com 1.10,2013-02-13 15:14:00,
2013-02-13 09:29:00,39.0,37.0,29.91,WNW,295,2.0,6.0,91,0.00,,,0.04,weatherlink.com 1.10,2013-02-13 15:29:00,
2013-02-13 09:44:00,39.5,37.0,29.91,WNW,303,5.0,7.0,89,0.00,,,0.04,weatherlink.com 1.10,2013-02-13 15:44:00,
2013-02-13 09:59:00,39.8,37.0,29.91,WNW,286,4.0,8.0,89,0.00,,,0.04,weatherlink.com 1.10,2013-02-13 15:59:00,
2013-02-13 10:14:00,40.8,38.0,29.91,WNW,293,3.0,7.0,89,0.00,,,0.04,weatherlink.com 1.10,2013-02-13 16:14:00,
2013-02-13 10:29:00,41.4,38.0,29.91,WNW,297,2.0,9.0,86,0.00,,,0.04,weatherlink.com 1.10,2013-02-13 16:29:00,
2013-02-13 10:44:00,42.5,38.0,29.90,WSW,248,1.0,6.0,85,0.00,,,0.04,weatherlink.com 1.10,2013-02-13 16:44:00,
2013-02-13 10:59:00,43.0,39.0,29.91,WNW,287,5.0,7.0,84,0.00,,,0.04,weatherlink.com 1.10,2013-02-13 16:59:00,
2013-02-13 11:14:00,42.8,38.0,29.91,SW,231,1.0,9.0,82,0.00,,,0.04,weatherlink.com 1.10,2013-02-13 17:14:00,
2013-02-13 11:29:00,43.3,38.0,29.90,WNW,286,4.0,9.0,80,0.00,,,0.04,weatherlink.com 1.10,2013-02-13 17:29:00,
2013-02-13 11:44:00,43.8,37.0,29.89,SW,236,4.0,6.0,78,0.00,,,0.04,weatherlink.com 1.10,2013-02-13 17:44:00,
2013-02-13 11:59:00,44.8,37.0,29.89,SW,234,2.0,10.0,74,0.00,,,0.04,weatherlink.com 1.10,2013-02-13 17:59:00,
2013-02-13 12:14:00,45.0,36.0,29.88,West,277,3.0,8.0,72,0.00,,,0.04,weatherlink.com 1.10,2013-02-13 18:14:00,
2013-02-13 12:29:00,45.0,38.0,29.88,WSW,240,1.0,8.0,75,0.00,,,0.04,weatherlink.com 1.10,2013-02-13 18:29:00,
2013-02-13 12:44:00,46.3,37.0,29.87,WSW,255,3.0,10.0,69,0.00,,,0.04,weatherlink.com 1.10,2013-02-13 18:44:00,
2013-02-13 12:59:00,46.8,37.0,29.87,WSW,252,4.0,8.0,68,0.00,,,0.04,weatherlink.com 1.10,2013-02-13 18:59:00,
2013-02-13 13:14:00,47.3,36.0,29.86,WNW,298,4.0,13.0,66,0.00,,,0.04,weatherlink.com 1.10,2013-02-13 19:14:00,
2013-02-13 13:29:00,48.0,35.0,29.86,NW,311,5.0,9.0,60,0.00,,,0.04,weatherlink.com 1.10,2013-02-13 19:29:00,
2013-02-13 13:44:00,48.7,35.0,29.85,SW,224,7.0,12.0,59,0.00,,,0.04,weatherlink.com 1.10,2013-02-13 19:44:00,
2013-02-13 13:59:00,49.4,35.0,29.85,SW,219,5.0,10.0,59,0.00,,,0.04,weatherlink.com 1.10,2013-02-13 19:59:00,
2013-02-13 14:14:00,49.9,35.0,29.85,South,191,3.0,10.0,58,0.00,,,0.04,weatherlink.com 1.10,2013-02-13 20:14:00,
2013-02-13 14:29:00,49.9,35.0,29.84,SW,232,2.0,10.0,56,0.00,,,0.04,weatherlink.com 1.10,2013-02-13 20:29:00,
2013-02-13 14:44:00,49.9,33.0,29.85,SW,223,5.0,11.0,53,0.00,,,0.04,weatherlink.com 1.10,2013-02-13 20:44:00,
2013-02-13 14:59:00,50.6,34.0,29.84,WSW,246,4.0,11.0,54,0.00,,,0.04,weatherlink.com 1.10,2013-02-13 20:59:00,
2013-02-13 15:14:00,50.7,33.0,29.85,SW,215,6.0,13.0,51,0.00,,,0.04,weatherlink.com 1.10,2013-02-13 21:14:00,
2013-02-13 15:29:00,50.9,33.0,29.84,SW,223,1.0,11.0,50,0.00,,,0.04,weatherlink.com 1.10,2013-02-13 21:29:00,
2013-02-13 15:44:00,51.3,33.0,29.84,WNW,296,4.0,10.0,49,0.00,,,0.04,weatherlink.com 1.10,2013-02-13 21:44:00,
2013-02-13 15:59:00,51.4,32.0,29.84,WNW,284,3.0,10.0,47,0.00,,,0.04,weatherlink.com 1.10,2013-02-13 21:59:00,
2013-02-13 16:14:00,51.5,31.0,29.84,SW,230,6.0,9.0,46,0.00,,,0.04,weatherlink.com 1.10,2013-02-13 22:14:00,
2013-02-13 16:29:00,51.1,31.0,29.84,SSW,206,1.0,12.0,47,0.00,,,0.04,weatherlink.com 1.10,2013-02-13 22:29:00,
2013-02-13 16:44:00,50.9,32.0,29.84,SSW,200,5.0,9.0,49,0.00,,,0.04,weatherlink.com 1.10,2013-02-13 22:44:00,
2013-02-13 16:59:00,50.0,32.0,29.84,SSW,198,4.0,7.0,51,0.00,,,0.04,weatherlink.com 1.10,2013-02-13 22:59:00,
2013-02-13 17:14:00,49.2,33.0,29.84,South,189,4.0,8.0,53,0.00,,,0.04,weatherlink.com 1.10,2013-02-13 23:14:00,
2013-02-13 17:29:00,48.4,33.0,29.84,South,189,3.0,4.0,55,0.00,,,0.04,weatherlink.com 1.10,2013-02-13 23:29:00,
2013-02-13 17:44:00,47.2,33.0,29.85,South,184,6.0,11.0,59,0.00,,,0.04,weatherlink.com 1.10,2013-02-13 23:44:00,
2013-02-13 17:59:00,46.6,35.0,29.86,SSW,192,4.0,7.0,64,0.00,,,0.04,weatherlink.com 1.10,2013-02-13 23:59:00,
2013-02-13 18:14:00,46.1,36.0,29.86,South,182,6.0,8.0,67,0.00,,,0.04,weatherlink.com 1.10,2013-02-14 00:14:00,
2013-02-13 18:29:00,45.6,36.0,29.86,South,187,3.0,10.0,70,0.00,,,0.04,weatherlink.com 1.10,2013-02-14 00:29:00,
2013-02-13 18:44:00,45.0,36.0,29.86,SSW,196,3.0,7.0,72,0.00,,,0.04,weatherlink.com 1.10,2013-02-14 00:44:00,
2013-02-13 18:59:00,44.5,37.0,29.87,South,181,5.0,7.0,75,0.00,,,0.04,weatherlink.com 1.10,2013-02-14 00:59:00,
2013-02-13 19:14:00,44.0,37.0,29.87,South,182,6.0,12.0,77,0.00,,,0.04,weatherlink.com 1.10,2013-02-14 01:14:00,
2013-02-13 19:29:00,43.5,37.0,29.88,SSW,199,8.0,9.0,79,0.00,,,0.04,weatherlink.com 1.10,2013-02-14 01:29:00,
2013-02-13 19:44:00,42.8,37.0,29.87,South,180,6.0,9.0,81,0.00,,,0.04,weatherlink.com 1.10,2013-02-14 01:44:00,
2013-02-13 19:59:00,42.4,37.0,29.88,South,180,4.0,8.0,82,0.00,,,0.04,weatherlink.com 1.10,2013-02-14 01:59:00,
2013-02-13 20:14:00,42.0,38.0,29.88,SSW,192,4.0,7.0,84,0.00,,,0.04,weatherlink.com 1.10,2013-02-14 02:14:00,
2013-02-13 20:29:00,41.6,37.0,29.89,South,180,3.0,6.0,84,0.00,,,0.04,weatherlink.com 1.10,2013-02-14 02:29:00,
2013-02-13 20:45:00,41.5,37.0,29.89,South,180,4.0,7.0,85,0.00,,,0.04,weatherlink.com 1.10,2013-02-14 02:45:00,
2013-02-13 21:00:00,41.4,38.0,29.89,South,180,4.0,8.0,86,0.00,,,0.04,weatherlink.com 1.10,2013-02-14 03:00:00,
2013-02-13 21:15:00,41.1,38.0,29.89,SSW,202,7.0,8.0,87,0.00,,,0.04,weatherlink.com 1.10,2013-02-14 03:15:00,
2013-02-13 21:30:00,40.9,38.0,29.89,South,175,4.0,7.0,88,0.00,,,0.04,weatherlink.com 1.10,2013-02-14 03:30:00,
2013-02-13 21:45:00,40.7,38.0,29.89,South,184,4.0,7.0,89,0.00,,,0.04,weatherlink.com 1.10,2013-02-14 03:45:00,
2013-02-13 22:00:00,40.6,38.0,29.89,SSW,195,5.0,7.0,89,0.00,,,0.04,weatherlink.com 1.10,2013-02-14 04:00:00,
2013-02-13 22:15:00,40.6,38.0,29.90,South,190,1.0,9.0,90,0.00,,,0.04,weatherlink.com 1.10,2013-02-14 04:15:00,
2013-02-13 22:45:00,40.4,38.0,29.90,SSW,207,6.0,8.0,90,0.00,,,0.04,weatherlink.com 1.10,2013-02-14 04:45:00,
2013-02-13 23:00:00,40.4,38.0,29.90,South,184,6.0,7.0,90,0.00,,,0.04,weatherlink.com 1.10,2013-02-14 05:00:00,
2013-02-13 23:15:00,40.1,38.0,29.90,SW,215,4.0,9.0,90,0.00,,,0.04,weatherlink.com 1.10,2013-02-14 05:15:00,
2013-02-13 23:30:00,39.7,37.0,29.90,South,178,6.0,9.0,90,0.00,,,0.04,weatherlink.com 1.10,2013-02-14 05:30:00,
2013-02-13 23:45:00,39.3,37.0,29.90,SSW,200,4.0,8.0,91,0.00,,,0.04,weatherlink.com 1.10,2013-02-14 05:45:00,